Simultaneous Nadir Overpasses (SNOs) Predictions

Prediction of SNOs between FY3D and NOAA-19 Satellite Orbit:

Table of predicted SNOs for the next 14.0 days since TLE Epoch: 10/3/2020
Index Date (FY3D) Time (FY3D) Lat,Lon (FY3D) SZA (FY3D ) Date (NOAA-19) Time (NOAA-19) Lat,Lon (NOAA-19) SZA (NOAA-19 ) Distance(km) Time Diff (sec)
1 10/15/2020 18:07:03 79.09,-121.37 89.01 10/15/2020 18:05:50 79.09,-121.30 89.03 1.58 73
2 10/15/2020 18:57:47 -79.08, 46.01 91.00 10/15/2020 18:56:51 -79.08, 45.86 90.97 3.22 56
3 10/15/2020 19:48:32 79.09,-146.73 89.03 10/15/2020 19:47:50 79.10,-146.66 89.05 2.50 42
4 10/15/2020 20:39:17 -79.11, 20.40 90.93 10/15/2020 20:38:51 -79.09, 20.50 90.94 2.83 26
5 10/15/2020 21:30:02 79.12,-172.35 89.11 10/15/2020 21:29:51 79.09,-172.30 89.08 3.69 11
6 10/15/2020 22:20:46 -79.11, -4.96 90.90 10/15/2020 22:20:51 -79.11, -4.87 90.91 1.95 5
7 10/15/2020 23:11:31 79.12, 162.29 89.13 10/15/2020 23:11:51 79.10, 162.34 89.10 1.90 20
8 10/16/2020 00:02:15 -79.11, -30.32 90.88 10/16/2020 00:02:51 -79.13, -30.23 90.88 2.69 36
9 10/16/2020 00:53:00 79.12, 136.93 89.15 10/16/2020 00:53:51 79.12, 136.97 89.13 0.84 51
10 10/16/2020 01:43:44 -79.11, -55.68 90.86 10/16/2020 01:44:52 -79.11, -55.86 90.86 3.72 68
